Time,TemperatureF,DewpointF,PressureIn,WindDirection,WindDirectionDegrees,WindSpeedMPH,WindSpeedGustMPH,Humidity,HourlyPrecipIn,Conditions,Clouds,dailyrainin,SolarRadiationWatts/m^2,SoftwareType,DateUTC
2013-01-15 00:00:00,66.3,66.3,29.94,South,185,2.0,3.0,100,0.00,,,0.00,0,Wunderground v.1.15,2013-01-15 10:00:00,
2013-01-15 00:10:00,66.2,66.2,29.94,South,186,2.0,3.0,100,0.00,,,0.00,0,Wunderground v.1.15,2013-01-15 10:10:00,
2013-01-15 00:15:00,66.2,66.2,29.94,South,186,2.0,3.0,100,0.00,,,0.00,0,Wunderground v.1.15,2013-01-15 10:15:00,
2013-01-15 00:20:00,66.3,66.3,29.94,South,186,2.0,2.0,100,0.00,,,0.00,0,Wunderground v.1.15,2013-01-15 10:20:00,
2013-01-15 00:25:00,66.3,66.3,29.94,South,186,2.0,2.0,100,0.00,,,0.00,0,Wunderground v.1.15,2013-01-15 10:25:00,
2013-01-15 00:30:00,66.2,66.2,29.94,South,186,2.0,2.0,100,0.00,,,0.00,0,Wunderground v.1.15,2013-01-15 10:30:00,
2013-01-15 00:35:00,65.9,65.9,29.94,South,186,2.0,2.0,100,0.00,,,0.00,0,Wunderground v.1.15,2013-01-15 10:35:00,
2013-01-15 00:40:00,65.7,65.7,29.94,SSW,192,3.0,3.0,100,0.00,,,0.00,0,Wunderground v.1.15,2013-01-15 10:40:00,
2013-01-15 00:50:00,65.5,65.2,29.94,SSW,213,3.0,3.0,99,0.00,,,0.00,0,Wunderground v.1.15,2013-01-15 10:50:00,
2013-01-15 00:55:00,65.4,65.1,29.94,SW,221,3.0,4.0,99,0.00,,,0.00,0,Wunderground v.1.15,2013-01-15 10:55:00,
2013-01-15 01:00:00,65.3,65.0,29.94,SW,225,3.0,3.0,99,0.00,,,0.00,0,Wunderground v.1.15,2013-01-15 11:00:00,
2013-01-15 01:10:00,65.1,64.8,29.94,SW,228,3.0,3.0,99,0.00,,,0.00,0,Wunderground v.1.15,2013-01-15 11:10:00,
2013-01-15 01:15:00,65.0,64.7,29.94,SW,228,3.0,3.0,99,0.00,,,0.00,0,Wunderground v.1.15,2013-01-15 11:15:00,
2013-01-15 01:20:00,65.0,64.7,29.94,SW,229,3.0,3.0,99,0.00,,,0.00,0,Wunderground v.1.15,2013-01-15 11:20:00,
2013-01-15 01:30:00,65.0,64.7,29.94,WSW,248,3.0,3.0,99,0.00,,,0.00,0,Wunderground v.1.15,2013-01-15 11:30:00,
2013-01-15 01:40:00,64.8,64.2,29.93,WSW,248,2.0,4.0,98,0.00,,,0.00,0,Wunderground v.1.15,2013-01-15 11:40:00,
2013-01-15 01:45:00,64.7,64.1,29.93,WSW,248,2.0,4.0,98,0.00,,,0.00,0,Wunderground v.1.15,2013-01-15 11:45:00,
2013-01-15 01:50:00,64.6,64.0,29.94,WSW,250,3.0,4.0,98,0.00,,,0.00,0,Wunderground v.1.15,2013-01-15 11:50:00,
2013-01-15 01:55:00,64.5,64.2,29.94,WSW,250,3.0,4.0,99,0.00,,,0.00,0,Wunderground v.1.15,2013-01-15 11:55:00,
2013-01-15 02:00:00,64.5,64.2,29.94,WSW,250,2.0,2.0,99,0.00,,,0.00,0,Wunderground v.1.15,2013-01-15 12:00:00,
2013-01-15 02:10:00,64.7,64.4,29.93,WSW,250,2.0,2.0,99,0.00,,,0.00,0,Wunderground v.1.15,2013-01-15 12:10:00,
2013-01-15 02:15:00,64.8,64.5,29.93,WSW,250,2.0,2.0,99,0.00,,,0.00,0,Wunderground v.1.15,2013-01-15 12:15:00,
2013-01-15 02:20:00,65.0,64.7,29.94,WSW,250,2.0,3.0,99,0.00,,,0.00,0,Wunderground v.1.15,2013-01-15 12:20:00,
2013-01-15 02:25:00,65.1,64.8,29.93,WSW,250,1.0,3.0,99,0.00,,,0.00,0,Wunderground v.1.15,2013-01-15 12:25:00,
2013-01-15 02:30:00,65.2,64.9,29.93,WSW,250,2.0,2.0,99,0.00,,,0.00,0,Wunderground v.1.15,2013-01-15 12:30:00,
2013-01-15 02:40:00,65.3,64.7,29.93,WSW,250,2.0,3.0,98,0.00,,,0.00,0,Wunderground v.1.15,2013-01-15 12:40:00,
2013-01-15 02:50:00,65.1,64.8,29.93,WSW,250,2.0,2.0,99,0.00,,,0.00,0,Wunderground v.1.15,2013-01-15 12:50:00,
2013-01-15 02:55:00,65.1,64.8,29.93,WSW,250,2.0,2.0,99,0.00,,,0.00,0,Wunderground v.1.15,2013-01-15 12:55:00,
2013-01-15 03:00:00,65.1,64.8,29.93,WSW,250,2.0,3.0,99,0.00,,,0.00,0,Wunderground v.1.15,2013-01-15 13:00:00,
2013-01-15 03:10:00,65.3,65.0,29.92,WSW,250,2.0,3.0,99,0.00,,,0.00,0,Wunderground v.1.15,2013-01-15 13:10:00,
2013-01-15 03:15:00,65.5,65.5,29.92,WSW,250,3.0,3.0,100,0.00,,,0.00,0,Wunderground v.1.15,2013-01-15 13:15:00,
2013-01-15 03:20:00,65.7,65.7,29.93,WSW,250,3.0,3.0,100,0.00,,,0.00,0,Wunderground v.1.15,2013-01-15 13:20:00,
2013-01-15 03:25:00,66.0,66.0,29.93,WSW,250,2.0,3.0,100,0.00,,,0.00,0,Wunderground v.1.15,2013-01-15 13:25:00,
2013-01-15 03:30:00,66.3,66.3,29.92,WSW,250,3.0,3.0,100,0.00,,,0.00,0,Wunderground v.1.15,2013-01-15 13:30:00,
2013-01-15 03:40:00,66.2,66.2,29.92,WSW,250,1.0,1.0,100,0.00,,,0.00,0,Wunderground v.1.15,2013-01-15 13:40:00,
2013-01-15 03:45:00,65.9,65.9,29.92,WSW,250,0.0,3.0,100,0.00,,,0.00,0,Wunderground v.1.15,2013-01-15 13:45:00,
2013-01-15 03:50:00,65.8,65.8,29.92,WSW,250,2.0,3.0,100,0.00,,,0.00,0,Wunderground v.1.15,2013-01-15 13:50:00,
2013-01-15 03:55:00,65.7,65.7,29.92,WSW,250,3.0,3.0,100,0.00,,,0.00,0,Wunderground v.1.15,2013-01-15 13:55:00,
2013-01-15 04:00:00,65.7,65.7,29.92,WSW,250,2.0,2.0,100,0.00,,,0.00,0,Wunderground v.1.15,2013-01-15 14:00:00,
2013-01-15 04:10:00,65.5,65.5,29.92,WSW,250,2.0,2.0,100,0.00,,,0.00,0,Wunderground v.1.15,2013-01-15 14:10:00,
2013-01-15 04:15:00,65.4,65.4,29.92,WSW,250,1.0,2.0,100,0.00,,,0.00,0,Wunderground v.1.15,2013-01-15 14:15:00,
2013-01-15 04:20:00,65.3,65.3,29.92,WSW,250,0.0,0.0,100,0.00,,,0.00,0,Wunderground v.1.15,2013-01-15 14:20:00,
2013-01-15 04:25:00,65.3,65.3,29.92,WSW,250,0.0,0.0,100,0.00,,,0.00,0,Wunderground v.1.15,2013-01-15 14:25:00,
2013-01-15 04:35:00,65.3,65.3,29.92,WSW,250,1.0,2.0,100,0.00,,,0.00,0,Wunderground v.1.15,2013-01-15 14:35:00,
2013-01-15 04:40:00,65.2,65.2,29.91,WSW,250,2.0,3.0,100,0.00,,,0.00,0,Wunderground v.1.15,2013-01-15 14:40:00,
2013-01-15 04:45:00,65.3,65.3,29.92,WSW,250,1.0,3.0,100,0.00,,,0.00,0,Wunderground v.1.15,2013-01-15 14:45:00,
2013-01-15 04:50:00,65.3,65.3,29.91,WSW,250,0.0,0.0,100,0.00,,,0.00,0,Wunderground v.1.15,2013-01-15 14:50:00,
2013-01-15 04:55:00,65.3,65.0,29.91,WSW,250,0.0,3.0,99,0.00,,,0.00,0,Wunderground v.1.15,2013-01-15 14:55:00,
2013-01-15 05:00:00,65.4,65.1,29.92,WSW,250,2.0,3.0,99,0.00,,,0.00,0,Wunderground v.1.15,2013-01-15 15:00:00,
2013-01-15 05:10:00,65.4,65.1,29.92,WSW,250,2.0,3.0,99,0.00,,,0.00,0,Wunderground v.1.15,2013-01-15 15:10:00,
2013-01-15 05:15:00,65.4,65.1,29.92,WSW,250,3.0,3.0,99,0.00,,,0.00,0,Wunderground v.1.15,2013-01-15 15:15:00,
2013-01-15 05:25:00,65.4,64.8,29.92,WSW,250,2.0,3.0,98,0.00,,,0.00,0,Wunderground v.1.15,2013-01-15 15:25:00,
2013-01-15 05:30:00,65.5,64.9,29.92,WSW,250,3.0,3.0,98,0.00,,,0.00,0,Wunderground v.1.15,2013-01-15 15:30:00,
2013-01-15 05:35:00,65.7,65.1,29.92,WSW,250,3.0,3.0,98,0.00,,,0.00,0,Wunderground v.1.15,2013-01-15 15:35:00,
2013-01-15 05:45:00,65.6,65.0,29.92,WSW,250,3.0,4.0,98,0.00,,,0.00,0,Wunderground v.1.15,2013-01-15 15:45:00,
2013-01-15 05:50:00,65.5,64.9,29.92,WSW,250,3.0,3.0,98,0.00,,,0.00,0,Wunderground v.1.15,2013-01-15 15:50:00,
2013-01-15 05:55:00,65.5,64.9,29.93,WSW,250,3.0,3.0,98,0.00,,,0.00,0,Wunderground v.1.15,2013-01-15 15:55:00,
2013-01-15 06:00:00,65.4,64.8,29.93,WSW,250,2.0,3.0,98,0.00,,,0.00,0,Wunderground v.1.15,2013-01-15 16:00:00,
2013-01-15 06:10:00,65.5,64.9,29.93,WSW,250,2.0,2.0,98,0.00,,,0.00,0,Wunderground v.1.15,2013-01-15 16:10:00,
2013-01-15 06:15:00,65.5,64.9,29.93,WSW,250,1.0,2.0,98,0.00,,,0.00,0,Wunderground v.1.15,2013-01-15 16:15:00,
2013-01-15 06:20:00,65.5,64.9,29.93,WSW,250,0.0,0.0,98,0.00,,,0.00,0,Wunderground v.1.15,2013-01-15 16:20:00,
2013-01-15 06:25:00,65.5,65.2,29.93,WSW,250,0.0,0.0,99,0.00,,,0.00,0,Wunderground v.1.15,2013-01-15 16:25:00,
2013-01-15 06:30:00,65.6,65.3,29.94,WSW,250,0.0,0.0,99,0.00,,,0.00,0,Wunderground v.1.15,2013-01-15 16:30:00,
2013-01-15 06:40:00,65.7,65.4,29.94,WSW,250,0.0,3.0,99,0.00,,,0.00,0,Wunderground v.1.15,2013-01-15 16:40:00,
2013-01-15 06:50:00,65.9,65.6,29.95,WSW,250,2.0,3.0,99,0.00,,,0.00,0,Wunderground v.1.15,2013-01-15 16:50:00,
2013-01-15 06:55:00,65.9,65.6,29.95,WSW,250,2.0,3.0,99,0.00,,,0.00,0,Wunderground v.1.15,2013-01-15 16:55:00,
2013-01-15 07:00:00,66.0,65.7,29.95,WSW,250,1.0,1.0,99,0.00,,,0.00,5,Wunderground v.1.15,2013-01-15 17:00:00,
2013-01-15 07:10:00,66.0,65.7,29.95,WSW,250,0.0,0.0,99,0.00,,,0.00,9,Wunderground v.1.15,2013-01-15 17:10:00,
2013-01-15 07:15:00,66.0,65.7,29.96,WSW,250,0.0,0.0,99,0.00,,,0.00,11,Wunderground v.1.15,2013-01-15 17:15:00,
2013-01-15 07:20:00,66.0,65.7,29.96,WSW,250,0.0,0.0,99,0.00,,,0.00,19,Wunderground v.1.15,2013-01-15 17:20:00,
2013-01-15 07:25:00,66.1,65.8,29.96,WSW,250,1.0,3.0,99,0.00,,,0.00,30,Wunderground v.1.15,2013-01-15 17:25:00,
2013-01-15 07:30:00,66.2,66.2,29.97,WSW,250,2.0,3.0,100,0.00,,,0.00,44,Wunderground v.1.15,2013-01-15 17:30:00,
2013-01-15 07:35:00,66.4,66.4,29.96,WSW,250,3.0,3.0,100,0.00,,,0.00,60,Wunderground v.1.15,2013-01-15 17:35:00,
2013-01-15 07:45:00,66.8,66.8,29.96,WSW,250,2.0,2.0,100,0.00,,,0.00,77,Wunderground v.1.15,2013-01-15 17:45:00,
2013-01-15 07:50:00,67.1,67.1,29.96,WSW,250,2.0,2.0,100,0.00,,,0.00,95,Wunderground v.1.15,2013-01-15 17:50:00,
2013-01-15 07:55:00,67.6,67.6,29.97,WSW,250,1.0,2.0,100,0.00,,,0.00,69,Wunderground v.1.15,2013-01-15 17:55:00,
2013-01-15 08:00:00,67.9,67.6,29.97,WSW,250,0.0,0.0,99,0.00,,,0.00,65,Wunderground v.1.15,2013-01-15 18:00:00,
2013-01-15 08:10:00,68.4,68.1,29.97,WSW,250,0.0,0.0,99,0.00,,,0.00,95,Wunderground v.1.15,2013-01-15 18:10:00,
2013-01-15 08:15:00,68.6,68.3,29.98,WSW,250,0.0,0.0,99,0.00,,,0.00,123,Wunderground v.1.15,2013-01-15 18:15:00,
2013-01-15 08:20:00,68.8,68.8,29.98,WSW,250,1.0,2.0,100,0.00,,,0.00,149,Wunderground v.1.15,2013-01-15 18:20:00,
2013-01-15 08:25:00,69.1,68.8,29.98,WSW,250,1.0,2.0,99,0.00,,,0.00,155,Wunderground v.1.15,2013-01-15 18:25:00,
2013-01-15 08:35:00,69.6,69.3,29.98,WSW,250,0.0,1.0,99,0.00,,,0.00,199,Wunderground v.1.15,2013-01-15 18:35:00,
2013-01-15 08:40:00,69.9,69.3,29.98,WSW,250,0.0,0.0,98,0.00,,,0.00,276,Wunderground v.1.15,2013-01-15 18:40:00,
2013-01-15 08:45:00,70.2,69.3,29.98,WSW,250,0.0,0.0,97,0.00,,,0.00,171,Wunderground v.1.15,2013-01-15 18:45:00,
2013-01-15 08:50:00,70.6,69.1,29.97,WSW,250,0.0,0.0,95,0.00,,,0.00,139,Wunderground v.1.15,2013-01-15 18:50:00,
2013-01-15 09:00:00,71.2,69.1,29.98,WSW,250,0.0,0.0,93,0.00,,,0.00,207,Wunderground v.1.15,2013-01-15 19:00:00,
2013-01-15 09:10:00,71.9,69.4,29.98,WSW,250,0.0,2.0,92,0.00,,,0.00,209,Wunderground v.1.15,2013-01-15 19:10:00,
2013-01-15 09:20:00,72.8,70.0,29.97,WSW,248,1.0,3.0,91,0.00,,,0.00,733,Wunderground v.1.15,2013-01-15 19:20:00,
2013-01-15 09:25:00,73.4,70.3,29.97,WSW,241,2.0,3.0,90,0.00,,,0.00,315,Wunderground v.1.15,2013-01-15 19:25:00,
2013-01-15 09:30:00,73.6,70.5,29.98,WSW,241,2.0,4.0,90,0.00,,,0.00,345,Wunderground v.1.15,2013-01-15 19:30:00,
2013-01-15 09:35:00,73.5,70.4,29.98,WSW,241,3.0,4.0,90,0.00,,,0.00,339,Wunderground v.1.15,2013-01-15 19:35:00,
2013-01-15 09:45:00,73.8,71.0,29.97,SW,221,2.0,4.0,91,0.00,,,0.00,512,Wunderground v.1.15,2013-01-15 19:45:00,
2013-01-15 09:50:00,73.8,71.0,29.97,SSW,207,2.0,2.0,91,0.00,,,0.00,373,Wunderground v.1.15,2013-01-15 19:50:00,
2013-01-15 09:55:00,73.9,70.8,29.97,SSW,207,2.0,3.0,90,0.00,,,0.00,343,Wunderground v.1.15,2013-01-15 19:55:00,
2013-01-15 10:00:00,74.0,71.2,29.97,SSW,207,2.0,4.0,91,0.00,,,0.00,250,Wunderground v.1.15,2013-01-15 20:00:00,
2013-01-15 10:10:00,73.9,71.1,29.97,SSW,205,3.0,3.0,91,0.00,,,0.00,192,Wunderground v.1.15,2013-01-15 20:10:00,
2013-01-15 10:15:00,73.7,70.9,29.97,SSW,205,2.0,5.0,91,0.00,,,0.00,176,Wunderground v.1.15,2013-01-15 20:15:00,
2013-01-15 10:25:00,73.5,71.0,29.97,SE,145,3.0,4.0,92,0.00,,,0.00,171,Wunderground v.1.15,2013-01-15 20:25:00,
2013-01-15 10:30:00,73.4,71.3,29.97,SE,145,2.0,2.0,93,0.00,,,0.00,232,Wunderground v.1.15,2013-01-15 20:30:00,
2013-01-15 10:35:00,73.4,71.3,29.97,SSE,149,2.0,4.0,93,0.00,,,0.00,290,Wunderground v.1.15,2013-01-15 20:35:00,
2013-01-15 10:40:00,73.4,71.6,29.97,SSW,202,3.0,3.0,94,0.00,,,0.00,316,Wunderground v.1.15,2013-01-15 20:40:00,
2013-01-15 10:45:00,73.6,71.8,29.97,SE,143,4.0,4.0,94,0.00,,,0.00,290,Wunderground v.1.15,2013-01-15 20:45:00,
2013-01-15 10:55:00,73.6,71.8,29.96,SSW,202,3.0,4.0,94,0.00,,,0.00,374,Wunderground v.1.15,2013-01-15 20:55:00,
2013-01-15 11:00:00,73.5,71.7,29.96,SSW,202,4.0,4.0,94,0.00,,,0.00,457,Wunderground v.1.15,2013-01-15 21:00:00,
2013-01-15 11:10:00,74.0,71.8,29.96,South,178,3.0,3.0,93,0.00,,,0.00,541,Wunderground v.1.15,2013-01-15 21:10:00,
2013-01-15 11:15:00,74.1,71.9,29.96,SSE,163,3.0,5.0,93,0.00,,,0.00,329,Wunderground v.1.15,2013-01-15 21:15:00,
2013-01-15 11:25:00,74.3,72.1,29.96,SSE,160,3.0,5.0,93,0.00,,,0.00,149,Wunderground v.1.15,2013-01-15 21:25:00,
2013-01-15 11:30:00,74.0,71.8,29.95,South,176,3.0,3.0,93,0.00,,,0.00,149,Wunderground v.1.15,2013-01-15 21:30:00,
2013-01-15 11:35:00,73.8,72.0,29.95,SSE,151,4.0,4.0,94,0.00,,,0.00,139,Wunderground v.1.15,2013-01-15 21:35:00,
2013-01-15 11:40:00,73.7,71.9,29.95,SE,146,4.0,5.0,94,0.00,,,0.00,162,Wunderground v.1.15,2013-01-15 21:40:00,
2013-01-15 11:45:00,73.5,72.0,29.95,SSW,206,4.0,6.0,95,0.00,,,0.00,225,Wunderground v.1.15,2013-01-15 21:45:00,
2013-01-15 11:55:00,73.2,72.0,29.94,SSW,203,4.0,7.0,96,0.00,,,0.00,285,Wunderground v.1.15,2013-01-15 21:55:00,
2013-01-15 12:00:00,72.9,72.0,29.94,South,177,5.0,5.0,97,0.00,,,0.00,253,Wunderground v.1.15,2013-01-15 22:00:00,
2013-01-15 12:10:00,72.5,71.6,29.93,SSW,196,6.0,7.0,97,0.00,,,0.00,362,Wunderground v.1.15,2013-01-15 22:10:00,
2013-01-15 12:15:00,72.5,71.9,29.93,SSW,212,6.0,7.0,98,0.00,,,0.00,218,Wunderground v.1.15,2013-01-15 22:15:00,
2013-01-15 12:20:00,72.4,71.8,29.93,SW,215,5.0,10.0,98,0.00,,,0.00,425,Wunderground v.1.15,2013-01-15 22:20:00,
2013-01-15 12:25:00,72.2,71.6,29.93,South,184,5.0,10.0,98,0.00,,,0.00,348,Wunderground v.1.15,2013-01-15 22:25:00,
2013-01-15 12:30:00,72.1,71.5,29.92,South,190,5.0,5.0,98,0.00,,,0.00,315,Wunderground v.1.15,2013-01-15 22:30:00,
2013-01-15 12:40:00,72.4,71.8,29.92,South,191,4.0,4.0,98,0.00,,,0.00,162,Wunderground v.1.15,2013-01-15 22:40:00,
2013-01-15 12:50:00,72.2,71.9,29.91,SSW,196,3.0,6.0,99,0.07,,,0.02,309,Wunderground v.1.15,2013-01-15 22:50:00,
2013-01-15 12:55:00,72.1,71.8,29.91,SSW,196,3.0,6.0,99,0.05,,,0.02,301,Wunderground v.1.15,2013-01-15 22:55:00,
2013-01-15 13:00:00,71.6,71.3,29.91,SSW,197,3.0,3.0,99,0.00,,,0.02,220,Wunderground v.1.15,2013-01-15 23:00:00,
2013-01-15 13:10:00,72.0,72.0,29.90,South,187,4.0,4.0,100,0.00,,,0.02,348,Wunderground v.1.15,2013-01-15 23:10:00,
2013-01-15 13:15:00,72.1,72.1,29.90,SSW,202,7.0,7.0,100,0.00,,,0.02,385,Wunderground v.1.15,2013-01-15 23:15:00,
2013-01-15 13:25:00,72.3,72.0,29.90,SSW,210,7.0,7.0,99,0.00,,,0.02,229,Wunderground v.1.15,2013-01-15 23:25:00,
2013-01-15 13:30:00,72.5,72.2,29.90,SSW,207,5.0,6.0,99,0.00,,,0.02,306,Wunderground v.1.15,2013-01-15 23:30:00,
2013-01-15 13:40:00,72.3,72.0,29.89,SW,219,6.0,6.0,99,0.00,,,0.02,199,Wunderground v.1.15,2013-01-15 23:40:00,
2013-01-15 13:45:00,72.2,71.9,29.90,SW,215,6.0,6.0,99,0.00,,,0.02,116,Wunderground v.1.15,2013-01-15 23:45:00,
2013-01-15 13:55:00,71.8,71.5,29.90,SSW,211,5.0,6.0,99,0.00,,,0.02,118,Wunderground v.1.15,2013-01-15 23:55:00,
2013-01-15 14:00:00,71.8,71.8,29.90,SSW,211,3.0,3.0,100,0.00,,,0.02,156,Wunderground v.1.15,2013-01-16 00:00:00,
2013-01-15 14:10:00,71.9,71.9,29.90,SSW,209,2.0,2.0,100,0.00,,,0.02,172,Wunderground v.1.15,2013-01-16 00:10:00,
2013-01-15 14:15:00,71.9,71.9,29.90,South,183,3.0,7.0,100,0.00,,,0.02,183,Wunderground v.1.15,2013-01-16 00:15:00,
2013-01-15 14:20:00,71.9,71.9,29.90,SE,141,3.0,5.0,100,0.00,,,0.02,134,Wunderground v.1.15,2013-01-16 00:20:00,
2013-01-15 14:25:00,72.0,72.0,29.90,South,173,2.0,5.0,100,0.00,,,0.02,153,Wunderground v.1.15,2013-01-16 00:25:00,
2013-01-15 14:30:00,71.8,71.8,29.89,South,176,3.0,3.0,100,0.00,,,0.02,86,Wunderground v.1.15,2013-01-16 00:30:00,
2013-01-15 14:40:00,71.6,71.6,29.90,SSW,194,5.0,7.0,100,0.00,,,0.02,223,Wunderground v.1.15,2013-01-16 00:40:00,
2013-01-15 14:45:00,71.4,71.4,29.90,South,185,5.0,7.0,100,0.00,,,0.02,260,Wunderground v.1.15,2013-01-16 00:45:00,
2013-01-15 14:50:00,71.2,71.2,29.90,SSW,213,5.0,5.0,100,0.00,,,0.02,197,Wunderground v.1.15,2013-01-16 00:50:00,
2013-01-15 14:55:00,71.4,71.4,29.90,SSW,196,4.0,5.0,100,0.00,,,0.02,142,Wunderground v.1.15,2013-01-16 00:55:00,
2013-01-15 15:00:00,71.4,71.4,29.90,SSE,160,3.0,3.0,100,0.00,,,0.02,109,Wunderground v.1.15,2013-01-16 01:00:00,
2013-01-15 15:10:00,71.3,71.3,29.90,SE,140,3.0,4.0,100,0.00,,,0.02,95,Wunderground v.1.15,2013-01-16 01:10:00,
2013-01-15 15:15:00,71.2,71.2,29.90,SE,138,3.0,4.0,100,0.00,,,0.02,120,Wunderground v.1.15,2013-01-16 01:15:00,
2013-01-15 15:20:00,71.3,71.3,29.90,SE,140,3.0,4.0,100,0.00,,,0.02,109,Wunderground v.1.15,2013-01-16 01:20:00,
2013-01-15 15:25:00,71.4,71.4,29.90,South,188,3.0,6.0,100,0.00,,,0.02,84,Wunderground v.1.15,2013-01-16 01:25:00,
2013-01-15 15:35:00,71.1,71.1,29.91,SSE,153,4.0,5.0,100,0.00,,,0.02,104,Wunderground v.1.15,2013-01-16 01:35:00,
2013-01-15 15:40:00,71.2,71.2,29.90,SSE,153,3.0,5.0,100,0.00,,,0.02,79,Wunderground v.1.15,2013-01-16 01:40:00,
2013-01-15 15:45:00,71.2,71.2,29.91,SSE,154,2.0,6.0,100,0.00,,,0.02,49,Wunderground v.1.15,2013-01-16 01:45:00,
2013-01-15 15:50:00,71.2,71.2,29.91,SSE,158,3.0,3.0,100,0.00,,,0.02,28,Wunderground v.1.15,2013-01-16 01:50:00,
2013-01-15 16:00:00,71.2,71.2,29.91,SSE,158,2.0,4.0,100,0.00,,,0.03,32,Wunderground v.1.15,2013-01-16 02:00:00,
2013-01-15 16:10:00,71.2,71.2,29.91,SSE,158,2.0,2.0,100,0.00,,,0.03,25,Wunderground v.1.15,2013-01-16 02:10:00,
2013-01-15 16:15:00,71.2,71.2,29.92,SSE,158,1.0,2.0,100,0.00,,,0.04,21,Wunderground v.1.15,2013-01-16 02:15:00,
2013-01-15 16:20:00,70.8,70.8,29.91,North,5,1.0,4.0,100,0.11,,,0.05,23,Wunderground v.1.15,2013-01-16 02:20:00,
2013-01-15 16:25:00,69.8,69.8,29.91,North,9,4.0,8.0,100,0.14,,,0.06,21,Wunderground v.1.15,2013-01-16 02:25:00,
2013-01-15 16:30:00,69.5,69.5,29.92,NNW,333,5.0,5.0,100,0.26,,,0.07,21,Wunderground v.1.15,2013-01-16 02:30:00,
2013-01-15 16:40:00,69.2,69.2,29.92,NNW,346,6.0,7.0,100,0.34,,,0.16,33,Wunderground v.1.15,2013-01-16 02:40:00,
2013-01-15 16:45:00,69.1,69.1,29.92,NNW,342,8.0,8.0,100,0.30,,,0.17,33,Wunderground v.1.15,2013-01-16 02:45:00,
2013-01-15 16:50:00,69.0,69.0,29.92,NNW,339,6.0,6.0,100,0.49,,,0.22,23,Wunderground v.1.15,2013-01-16 02:50:00,
2013-01-15 16:55:00,69.0,69.0,29.92,NNW,339,4.0,6.0,100,0.19,,,0.24,21,Wunderground v.1.15,2013-01-16 02:55:00,
2013-01-15 17:00:00,69.0,69.0,29.93,WNW,293,4.0,4.0,100,0.24,,,0.26,23,Wunderground v.1.15,2013-01-16 03:00:00,
2013-01-15 17:10:00,68.9,68.9,29.92,North,5,3.0,3.0,100,0.12,,,0.28,11,Wunderground v.1.15,2013-01-16 03:10:00,
2013-01-15 17:15:00,68.9,68.9,29.93,North,355,3.0,6.0,100,0.30,,,0.29,14,Wunderground v.1.15,2013-01-16 03:15:00,
2013-01-15 17:25:00,68.9,68.9,29.93,NNW,346,5.0,5.0,100,0.75,,,0.35,14,Wunderground v.1.15,2013-01-16 03:25:00,
2013-01-15 17:30:00,68.8,68.8,29.93,North,355,5.0,5.0,100,1.29,,,0.43,16,Wunderground v.1.15,2013-01-16 03:30:00,
2013-01-15 17:35:00,68.7,68.7,29.93,North,360,5.0,5.0,100,0.35,,,0.45,18,Wunderground v.1.15,2013-01-16 03:35:00,
2013-01-15 17:40:00,68.7,68.7,29.93,NNW,336,4.0,6.0,100,1.19,,,0.54,18,Wunderground v.1.15,2013-01-16 03:40:00,
2013-01-15 17:45:00,68.6,68.6,29.94,North,349,4.0,6.0,100,0.93,,,0.65,11,Wunderground v.1.15,2013-01-16 03:45:00,
2013-01-15 17:50:00,68.7,68.7,29.94,North,350,3.0,3.0,100,0.46,,,0.69,7,Wunderground v.1.15,2013-01-16 03:50:00,
2013-01-15 18:00:00,68.6,68.6,29.94,North,350,2.0,3.0,100,0.37,,,0.80,0,Wunderground v.1.15,2013-01-16 04:00:00,
2013-01-15 18:10:00,68.6,68.6,29.94,North,350,1.0,1.0,100,0.23,,,0.84,0,Wunderground v.1.15,2013-01-16 04:10:00,
2013-01-15 18:15:00,68.6,68.6,29.95,North,350,1.0,4.0,100,0.61,,,0.87,0,Wunderground v.1.15,2013-01-16 04:15:00,
2013-01-15 18:20:00,68.5,68.5,29.95,North,355,3.0,3.0,100,0.35,,,0.90,0,Wunderground v.1.15,2013-01-16 04:20:00,
2013-01-15 18:25:00,68.5,68.5,29.95,North,355,3.0,3.0,100,0.24,,,0.91,0,Wunderground v.1.15,2013-01-16 04:25:00,
2013-01-15 18:30:00,68.4,68.4,29.95,North,355,3.0,3.0,100,0.12,,,0.92,0,Wunderground v.1.15,2013-01-16 04:30:00,
2013-01-15 18:35:00,68.4,68.4,29.95,West,275,2.0,5.0,100,0.37,,,0.94,0,Wunderground v.1.15,2013-01-16 04:35:00,
2013-01-15 18:40:00,68.3,68.3,29.95,NNW,330,4.0,6.0,100,0.10,,,0.94,0,Wunderground v.1.15,2013-01-16 04:40:00,
2013-01-15 18:50:00,68.2,68.2,29.95,NNW,341,5.0,5.0,100,0.04,,,0.94,0,Wunderground v.1.15,2013-01-16 04:50:00,
2013-01-15 18:55:00,68.2,68.2,29.95,NNW,329,5.0,5.0,100,0.00,,,0.94,0,Wunderground v.1.15,2013-01-16 04:55:00,
2013-01-15 19:00:00,68.2,68.2,29.95,NNW,327,5.0,5.0,100,0.13,,,0.95,0,Wunderground v.1.15,2013-01-16 05:00:00,
2013-01-15 19:10:00,68.2,68.2,29.95,NNW,347,4.0,6.0,100,0.05,,,0.95,0,Wunderground v.1.15,2013-01-16 05:10:00,
2013-01-15 19:15:00,68.2,68.2,29.96,NNW,342,4.0,6.0,100,0.04,,,0.96,0,Wunderground v.1.15,2013-01-16 05:15:00,
2013-01-15 19:20:00,68.3,68.3,29.95,NNW,342,4.0,4.0,100,0.07,,,0.96,0,Wunderground v.1.15,2013-01-16 05:20:00,
2013-01-15 19:25:00,68.3,68.3,29.96,NNW,342,3.0,5.0,100,0.15,,,0.98,0,Wunderground v.1.15,2013-01-16 05:25:00,
2013-01-15 19:30:00,68.2,68.2,29.96,NNW,342,3.0,3.0,100,0.17,,,0.99,0,Wunderground v.1.15,2013-01-16 05:30:00,
2013-01-15 19:35:00,68.3,68.3,29.96,NNW,342,3.0,3.0,100,0.10,,,0.99,0,Wunderground v.1.15,2013-01-16 05:35:00,
2013-01-15 19:40:00,68.3,68.3,29.96,NNW,345,2.0,6.0,100,0.06,,,1.00,0,Wunderground v.1.15,2013-01-16 05:40:00,
2013-01-15 19:45:00,68.2,68.2,29.96,NNW,344,3.0,6.0,100,0.16,,,1.01,0,Wunderground v.1.15,2013-01-16 05:45:00,
2013-01-15 19:50:00,68.2,68.2,29.96,NNW,344,2.0,2.0,100,0.07,,,1.01,0,Wunderground v.1.15,2013-01-16 05:50:00,
2013-01-15 20:00:00,68.3,68.3,29.96,NNW,344,0.0,0.0,100,0.00,,,1.01,0,Wunderground v.1.15,2013-01-16 06:00:00,
2013-01-15 20:10:00,68.4,68.4,29.96,NNW,344,1.0,3.0,100,0.00,,,1.01,0,Wunderground v.1.15,2013-01-16 06:10:00,
2013-01-15 20:15:00,68.5,68.5,29.96,NNW,344,2.0,3.0,100,0.00,,,1.01,0,Wunderground v.1.15,2013-01-16 06:15:00,
2013-01-15 20:20:00,68.7,68.7,29.96,NNW,344,2.0,2.0,100,0.00,,,1.01,0,Wunderground v.1.15,2013-01-16 06:20:00,
2013-01-15 20:25:00,68.7,68.7,29.96,NNW,344,1.0,2.0,100,0.00,,,1.01,0,Wunderground v.1.15,2013-01-16 06:25:00,
2013-01-15 20:30:00,68.8,68.8,29.96,NNW,344,0.0,0.0,100,0.00,,,1.01,0,Wunderground v.1.15,2013-01-16 06:30:00,
2013-01-15 20:35:00,68.9,68.9,29.96,NNW,344,0.0,0.0,100,0.00,,,1.01,0,Wunderground v.1.15,2013-01-16 06:35:00,
2013-01-15 20:40:00,68.9,68.9,29.96,NNW,344,0.0,0.0,100,0.00,,,1.01,0,Wunderground v.1.15,2013-01-16 06:40:00,
2013-01-15 20:45:00,69.0,69.0,29.96,NNW,344,0.0,0.0,100,0.00,,,1.01,0,Wunderground v.1.15,2013-01-16 06:45:00,
2013-01-15 20:55:00,69.1,69.1,29.96,NNW,344,0.0,0.0,100,0.00,,,1.01,0,Wunderground v.1.15,2013-01-16 06:55:00,
2013-01-15 21:00:00,69.2,69.2,29.96,NNW,344,0.0,0.0,100,0.00,,,1.01,0,Wunderground v.1.15,2013-01-16 07:00:00,
2013-01-15 21:10:00,69.1,69.1,29.96,NNW,344,0.0,0.0,100,0.00,,,1.01,0,Wunderground v.1.15,2013-01-16 07:10:00,
2013-01-15 21:15:00,69.2,69.2,29.96,NNW,344,0.0,0.0,100,0.00,,,1.01,0,Wunderground v.1.15,2013-01-16 07:15:00,
2013-01-15 21:20:00,69.3,69.3,29.96,NNW,344,0.0,0.0,100,0.00,,,1.01,0,Wunderground v.1.15,2013-01-16 07:20:00,
2013-01-15 21:25:00,69.4,69.4,29.96,NNW,344,1.0,1.0,100,0.00,,,1.01,0,Wunderground v.1.15,2013-01-16 07:25:00,
2013-01-15 21:30:00,69.5,69.5,29.96,NNW,344,1.0,3.0,100,0.00,,,1.01,0,Wunderground v.1.15,2013-01-16 07:30:00,
2013-01-15 21:40:00,69.3,69.3,29.96,SW,235,3.0,6.0,100,0.00,,,1.01,0,Wunderground v.1.15,2013-01-16 07:40:00,
2013-01-15 21:50:00,68.5,68.5,29.96,WSW,252,4.0,4.0,100,0.00,,,1.01,0,Wunderground v.1.15,2013-01-16 07:50:00,
2013-01-15 21:55:00,68.3,68.3,29.96,WSW,252,3.0,4.0,100,0.00,,,1.01,0,Wunderground v.1.15,2013-01-16 07:55:00,
2013-01-15 22:00:00,68.2,68.2,29.96,WSW,255,3.0,3.0,100,0.00,,,1.01,0,Wunderground v.1.15,2013-01-16 08:00:00,
2013-01-15 22:10:00,68.0,68.0,29.96,WSW,258,3.0,3.0,100,0.00,,,1.01,0,Wunderground v.1.15,2013-01-16 08:10:00,
2013-01-15 22:15:00,68.0,68.0,29.96,West,259,3.0,3.0,100,0.00,,,1.01,0,Wunderground v.1.15,2013-01-16 08:15:00,
2013-01-15 22:20:00,68.0,68.0,29.96,West,259,2.0,2.0,100,0.00,,,1.01,0,Wunderground v.1.15,2013-01-16 08:20:00,
2013-01-15 22:30:00,67.8,67.8,29.95,West,259,2.0,2.0,100,0.00,,,1.01,0,Wunderground v.1.15,2013-01-16 08:30:00,
2013-01-15 22:35:00,67.7,67.7,29.95,West,259,2.0,3.0,100,0.00,,,1.01,0,Wunderground v.1.15,2013-01-16 08:35:00,
2013-01-15 22:40:00,67.5,67.5,29.96,West,259,2.0,2.0,100,0.00,,,1.01,0,Wunderground v.1.15,2013-01-16 08:40:00,
2013-01-15 22:45:00,67.4,67.4,29.96,West,259,2.0,3.0,100,0.00,,,1.01,0,Wunderground v.1.15,2013-01-16 08:45:00,
2013-01-15 22:50:00,67.4,67.4,29.95,West,259,3.0,3.0,100,0.00,,,1.01,0,Wunderground v.1.15,2013-01-16 08:50:00,
2013-01-15 23:00:00,67.4,67.4,29.95,West,259,0.0,0.0,100,0.00,,,1.01,0,Wunderground v.1.15,2013-01-16 09:00:00,
2013-01-15 23:10:00,67.5,67.5,29.95,West,259,2.0,2.0,100,0.00,,,1.01,0,Wunderground v.1.15,2013-01-16 09:10:00,
2013-01-15 23:15:00,67.5,67.5,29.95,West,259,1.0,2.0,100,0.00,,,1.01,0,Wunderground v.1.15,2013-01-16 09:15:00,
2013-01-15 23:25:00,67.6,67.6,29.95,West,259,2.0,2.0,100,0.00,,,1.01,0,Wunderground v.1.15,2013-01-16 09:25:00,
2013-01-15 23:30:00,67.5,67.5,29.95,West,259,2.0,2.0,100,0.00,,,1.01,0,Wunderground v.1.15,2013-01-16 09:30:00,
2013-01-15 23:35:00,67.5,67.5,29.95,West,259,1.0,2.0,100,0.00,,,1.01,0,Wunderground v.1.15,2013-01-16 09:35:00,
2013-01-15 23:40:00,67.5,67.5,29.94,West,259,1.0,1.0,100,0.00,,,1.01,0,Wunderground v.1.15,2013-01-16 09:40:00,
2013-01-15 23:50:00,67.4,67.4,29.94,West,259,1.0,3.0,100,0.00,,,1.01,0,Wunderground v.1.15,2013-01-16 09:50:00,
2013-01-15 23:55:00,67.3,67.3,29.94,West,259,2.0,3.0,100,0.00,,,0.00,0,Wunderground v.1.15,2013-01-16 09:55:00,